(2012 XS111) |
Classification: Aten [NEO] SPK-ID: 3620670 |
[ hide orbit diagram ]
For accurate long-term ephemerides, please instead use our Horizons system.This orbit viewer was implemented using two-body methods, and hence should not be used for determining accurate long-term trajectories (over several years or decades) or planetary encounter circumstances.
Orbital Elements at Epoch 2459200.5 (2020-Dec-17.0) TDB
Reference: JPL 26 (heliocentric ecliptic J2000)
Element | Value | Uncertainty (1-sigma) | Units |
e | .4995050361919288 | 3.482e-07 | |
a | .7735370431096779 | 1.4209e-08 | au |
q | .3871513943953807 | 2.6282e-07 | au |
i | 7.611433949658164 | 1.6062e-05 | deg |
node | 62.23230468177341 | 1.9141e-05 | deg |
peri | 191.9605353680918 | 2.9361e-05 | deg |
M | 116.188347787381 | 0.00012509 | deg |
tp | 2459120.298927470639 (2020-Sep-27.79892747) | 8.4361e-05 | TDB |
period | 248.4963996854928 0.68 | 6.8467e-06 1.875e-08 | d yr |
n | 1.448713142144638 | 3.9916e-08 | deg/d |
Q | 1.159922691823975 | 2.1306e-08 | au |
|
| | Orbit Determination Parameters
Additional Information
|
[ show covariance matrix ]
[ show close-approach data ]
|